[[{"header":{"parameterUnit":"m.s-1","parameterCategory":1,"la1":30.2992,"la2":30.254,"lo1":-89.0895,"lo2":-89.0443,"dy":0.0025,"dx":0.0025,"nx":19,"ny":19,"refTime":"2026-03-17T09:00:00:Z","depth":0,"parameterNumber":2,"parameterNumberName":"U-component_of_WINDS"},"data":[0,0,0,0.5036,0.5035,0.4969,0.4968,0.49,0.4899,0,0,0,0,0,0,0,0,0,0,0,0.5065,0.5064,0.5036,0.5035,0.4969,0.4968,0.49,0.4899,0,0,0,0,0,0,0,0,0,0,0,0.5065,0.5064,0.5064,0.5034,0.4969,0.4968,0.49,0.4944,0,0,0,0,0,0,0,0,0,0,0.5006,0.5041,0.5064,0.5064,0.5034,0.4969,0.4968,0.4946,0.4941,0.4936,0,0.4934,0,0.4916,0.4896,0.4896,0,0,0,0.5028,0.5045,0.5019,0.5064,0.5034,0.4969,0.4996,0.4943,0.4938,0.493,0.4933,0.493,0.4915,0.4895,0.4895,0.489,0.489,0,0,0.5031,0.5057,0.5023,0.5016,0.5027,0.4999,0.4994,0.494,0.4944,0.4933,0.4928,0.4914,0.4895,0.4895,0.489,0.489,0,0,0,0.5046,0.506,0.5035,0.5019,0.5006,0.4997,0.4992,0.4947,0.4936,0.4927,0.4913,0.4895,0.4894,0.4889,0.489,0.493,0,0,0,0.5048,0.5069,0.5037,0.5053,0.5007,0.4975,0.5,0.494,0.4933,0.4913,0.4895,0.4894,0.4889,0.489,0.4928,0.4944,0,0,0,0.5066,0.5071,0.5065,0.5054,0.5027,0.4976,0.4962,0.4938,0.4925,0.4895,0.4893,0.4889,0.4889,0.4926,0.4941,0.495,0,0,0,0.5092,0.51,0.5066,0.507,0.5028,0.5001,0.4962,0.4941,0.4921,0.4894,0.4889,0.489,0.4926,0.4939,0.4949,0.4963,0.4971,0,0,0.5117,0.5104,0.5105,0.5072,0.5059,0.5009,0.5002,0.4958,0.4932,0.4906,0.4905,0.4929,0.4941,0.495,0.501,0.5017,0,0,0,0.5122,0.5123,0.5114,0.5096,0.5064,0.5038,0.4993,0.4977,0.4954,0.4924,0.4934,0.4941,0.4945,0.495,0.4956,0.4958,0.4894,0.4893,0.4893,0.5194,0.5161,0.516,0.5119,0.5103,0.5058,0.5042,0.5013,0.4983,0.4986,0.4977,0.5018,0.5025,0.5029,0.5032,0.4983,0.4983,0.4983,0.4983,0.5228,0.5224,0.5186,0.5171,0.5137,0.5124,0.5082,0.5062,0.5046,0.5021,0.5023,0.4998,0.5038,0.5038,0.4986,0.4985,0.4985,0.4985,0.4985,0.527,0.5263,0.5244,0.5217,0.52,0.5159,0.5146,0.5115,0.5085,0.5087,0.5075,0.5075,0.507,0.5084,0.5084,0.5085,0.5085,0.5085,0.5085,0.5321,0.53,0.5292,0.5261,0.5247,0.5224,0.5181,0.5166,0.5142,0.512,0.512,0.5091,0.5048,0.5038,0.5087,0.5087,0.5086,0.5086,0.5086,0.5366,0.5352,0.534,0.5326,0.5288,0.5274,0.5236,0.5209,0.5192,0.5187,0.5158,0.5132,0.5116,0.5112,0.5103,0.5165,0.5165,0.5165,0.5165,0.5401,0.5391,0.5373,0.5353,0.533,0.5295,0.5285,0.5253,0.5218,0.5206,0.5193,0.5179,0.5175,0.5161,0.5156,0.5147,0.5219,0.5219,0.5219,0.5427,0.5414,0.541,0.5376,0.5344,0.5319,0.5308,0.5288,0.5244,0.5221,0.5196,0.5194,0.5171,0.5165,0.5139,0.513,0.5113,0,0]},{"header":{"parameterUnit":"m.s-1","parameterCategory":1,"la1":30.2992,"la2":30.254,"lo1":-89.0895,"lo2":-89.0443,"dy":0.0025,"dx":0.0025,"nx":19,"ny":19,"refTime":"2026-03-17T09:00:00:Z","depth":0,"parameterNumber":3,"parameterNumberName":"V-component_of_WINDS"},"data":[0,0,0,-6.3622,-6.3629,-6.3985,-6.3986,-6.4448,-6.4452,0,0,0,0,0,0,0,0,0,0,0,-6.3524,-6.3527,-6.3621,-6.363,-6.3984,-6.3986,-6.4447,-6.4452,0,0,0,0,0,0,0,0,0,0,0,-6.3522,-6.3526,-6.3531,-6.3632,-6.3984,-6.3986,-6.4446,-6.4175,0,0,0,0,0,0,0,0,0,0,-6.3829,-6.3746,-6.3525,-6.3531,-6.3634,-6.3984,-6.3986,-6.4162,-6.4192,-6.4291,0,-6.4383,0,-6.4425,-6.4484,-6.4485,0,0,0,-6.3624,-6.3721,-6.381,-6.3531,-6.3637,-6.3983,-6.3823,-6.4178,-6.4213,-6.4331,-6.439,-6.4407,-6.4433,-6.4487,-6.4489,-6.5085,-6.5088,0,0,-6.3605,-6.3591,-6.3787,-6.3833,-6.3781,-6.3812,-6.3834,-6.4199,-6.4261,-6.4392,-6.4417,-6.444,-6.449,-6.4493,-6.5082,-6.5086,0,0,0,-6.3552,-6.3578,-6.3658,-6.3814,-6.3877,-6.3822,-6.3848,-6.4245,-6.4272,-6.4422,-6.4446,-6.4492,-6.4498,-6.5079,-6.5084,-6.5222,0,0,0,-6.354,-6.3547,-6.365,-6.3645,-6.3871,-6.4066,-6.3886,-6.4247,-6.4289,-6.4444,-6.4493,-6.4503,-6.5076,-6.5081,-6.5211,-6.5289,0,0,0,-6.3498,-6.3542,-6.3596,-6.3643,-6.3796,-6.4061,-6.4109,-6.4256,-6.4304,-6.4486,-6.4504,-6.5073,-6.508,-6.5201,-6.5273,-6.5441,0,0,0,-6.3449,-6.3714,-6.3598,-6.3903,-6.3793,-6.4144,-6.4107,-6.4369,-6.4541,-6.4495,-6.5076,-6.5083,-6.5198,-6.5263,-6.5431,-6.558,-6.5641,0,0,-6.3776,-6.3753,-6.3934,-6.384,-6.4209,-6.4091,-6.448,-6.465,-6.4679,-6.4947,-6.4962,-6.5214,-6.5272,-6.5439,-6.599,-6.6039,0,0,0,-6.4033,-6.4162,-6.4263,-6.4427,-6.4564,-6.4687,-6.4799,-6.4862,-6.5091,-6.4815,-6.5321,-6.5356,-6.5454,-6.5526,-6.5568,-6.5652,-6.5116,-6.5115,-6.5115,-6.4477,-6.45,-6.4799,-6.4865,-6.5024,-6.5137,-6.5267,-6.537,-6.5347,-6.5466,-6.5546,-6.5878,-6.5962,-6.5993,-6.6081,-6.5627,-6.5628,-6.5628,-6.5629,-6.4957,-6.5144,-6.5106,-6.5382,-6.5404,-6.5636,-6.5754,-6.5729,-6.5947,-6.582,-6.5908,-6.5767,-6.6045,-6.6123,-6.5639,-6.5637,-6.5636,-6.5635,-6.5634,-6.525,-6.5343,-6.5415,-6.5654,-6.5834,-6.589,-6.6101,-6.6114,-6.6126,-6.6213,-6.6298,-6.6296,-6.6294,-6.6253,-6.6254,-6.6255,-6.6256,-6.6257,-6.6258,-6.5525,-6.5602,-6.5779,-6.5946,-6.6051,-6.6192,-6.6306,-6.641,-6.6528,-6.652,-6.6521,-6.6484,-6.6069,-6.5963,-6.6276,-6.6273,-6.627,-6.6269,-6.6267,-6.6003,-6.5897,-6.617,-6.6277,-6.6471,-6.6649,-6.6661,-6.6872,-6.6959,-6.7062,-6.7007,-6.6698,-6.6675,-6.6642,-6.6555,-6.7002,-6.7002,-6.7002,-6.7002,-6.625,-6.6239,-6.6521,-6.6689,-6.6855,-6.6894,-6.7199,-6.729,-6.7366,-6.7421,-6.7358,-6.7244,-6.721,-6.7207,-6.7162,-6.7081,-6.7651,-6.7652,-6.7653,-6.6544,-6.655,-6.6809,-6.6883,-6.7036,-6.7166,-6.7453,-6.7646,-6.7711,-6.7679,-6.7464,-6.7437,-6.7252,-6.7191,-6.7154,-6.7084,-6.6936,0,0]}]]